Regional Weather Roundup
Issued by NWS Sioux Falls, SD

Home | Current Version | Previous Version | Graphics & Text | Print | Product List | Glossary On
Versions: 1 2 3 4 5 6 7 8 9 10 11 12 13 14 15 16 17 18 19 20 21 22 23 24 25 26 27 28 29 30 31 32 33 34 35 36 37 38 39 40 41 42 43 44 45 46 47 48 49 50
000
ASUS43 KFSD 260610
RWRFSD

WEATHER ROUNDUP FOR SE SOUTH DAKOTA/SW MINNESOTA/NW IOWA
NATIONAL WEATHER SERVICE SIOUX FALLS SD
1200 AM CST MON JAN 26 2015

NOTE: "FAIR" INDICATES FEW OR NO CLOUDS BELOW 12,000 FEET WITH NO
SIGNIFICANT WEATHER AND OR OBSTRUCTIONS TO VISIBILITY.


SDZ038>040-050-052>070-260700-
SOUTHEAST SOUTH DAKOTA

CITY           SKY/WX    TMP DP  RH WIND       PRES   REMARKS
CHAMBERLAIN    PTCLDY    32  30  92 S3        29.89F
6HR MIN TEMP:  29; 6HR MAX TEMP:  33;

HURON          PTCLDY    33  30  88 S12       29.88F WCI  24
6HR MIN TEMP:  31; 6HR MAX TEMP:  34;

MADISON        FAIR      32  32 100 SW10      29.90F WCI  24
MITCHELL       PTCLDY    34  32  92 S9        29.92F WCI  27
6HR MIN TEMP:  32; 6HR MAX TEMP:  36;

SIOUX FALLS    MOCLDY    32  30  92 SW6       29.94F WCI  26
6HR MIN TEMP:  31; 6HR MAX TEMP:  33;

WINNER         FAIR      41  29  62 SW12      29.90F
YANKTON        CLEAR     30  28  93 SW5       29.98F WCI  25
$$

MNZ071-072-080-081-089-090-097-098-260700-
SOUTHWEST MINNESOTA

CITY           SKY/WX    TMP DP  RH WIND       PRES   REMARKS
FAIRMONT       CLOUDY    28  23  80 S8        29.97F WCI  20
JACKSON        CLOUDY    32  30  93 S8        29.95F WCI  25
LUVERNE        CLOUDY    32  32 100 S8        29.93F WCI  25
MARSHALL       CLOUDY    32  28  86 W6        29.93S WCI  26
6HR MIN TEMP:  27; 6HR MAX TEMP:  34;

MONTEVIDEO     CLOUDY    30  30 100 SW6       29.91F WCI  24
PIPESTONE      CLOUDY    30  30 100 SW8       29.90F WCI  23
REDWOOD FALLS  CLOUDY    31  27  85 S8        29.93F WCI  23
TRACY          CLOUDY    32  31  94 SW9       29.92S WCI  24
WINDOM         CLOUDY    30  30 100 S8        29.94F WCI  23
WORTHINGTON    CLOUDY    32  28  86 SW9       29.94F WCI  24
$$

IAZ001>003-012>014-020>022-031-032-NEZ013-014-SDZ071-260700-
NORTHWEST IOWA

CITY           SKY/WX    TMP DP  RH WIND       PRES   REMARKS
CHEROKEE       CLOUDY    32  31  99 S5        30.00F WCI  27
DENISON        CLOUDY    32  32 100 CALM      30.02S
ESTHERVILLE    CLOUDY    29  27  92 S12       29.95F WCI  19
LE MARS        MOCLDY    30  30 100 S7        30.00F WCI  23
ORANGE CITY    MOCLDY    32  30  93 SW9       29.97F WCI  24
SHELDON        CLOUDY    32  32 100 SW8       29.95F WCI  25
SIOUX CITY     PTCLDY    30  28  92 S3        30.02F
6HR MIN TEMP:  30; 6HR MAX TEMP:  36;

SPENCER        CLOUDY    33  30  88 SW10      29.96F WCI  25
6HR MIN TEMP:  32; 6HR MAX TEMP:  33;

STORM LAKE     CLOUDY    30  30 100 S8        30.00F WCI  23
$$

ABBREVIATIONS USED IN REMARKS
   TC - TEMPERATURE IN CELSIUS
  WCI - WIND CHILL INDEX
   HX - HEAT INDEX
  VSB - VISIBILITY




USA.gov is the U.S. government's official web portal to all federal, state and local government web resources and services.